Theta_e
310 310 310 310 310 309 308 307 304 301 300 299 299 298 299 299 298 298 297 297 298 298 298 297 297 296 296 296 295 295 295 295 295 295 296 296 296 296 296 296 296 297 296 296 297 297 297 297 297 297 297 297
311 311 311 310 310 309 309 307 305 302 300 299 299 298 298 298 297 297 297 296 296 297 297 296 296 295 295 295 295 295 295 295 295 296 296 296 296 296 296 296 296 297 297 297 297 297 297 297 297 297 297 297
312 312 311 310 310 309 309 307 305 302 300 300 299 298 298 298 297 297 297 297 296 296 296 296 295 295 295 295 295 295 295 296 296 296 296 296 296 296 296 297 297 297 297 297 297 297 297 297 297 297 297 297
312 312 311 311 310 309 309 307 305 302 300 300 299 298 298 298 297 297 297 297 296 296 296 296 296 295 295 295 295 296 296 296 296 296 296 296 296 296 296 296 296 296 297 297 297 297 297 297 297 297 297 297
312 312 311 311 310 309 308 307 305 302 301 300 299 298 298 297 297 297 297 297 297 296 296 296 296 296 296 295 295 296 296 296 296 296 296 295 295 295 295 294 294 294 294 294 294 295 295 295 295 295 295 296
312 312 311 310 310 309 308 307 305 302 300 300 299 298 297 297 297 297 297 297 296 296 296 296 296 296 296 296 296 296 295 295 295 295 294 294 293 293 293 293 293 292 293 293 293 293 293 293 293 293 293 294
312 312 311 310 310 309 308 307 304 302 300 299 298 298 297 297 297 297 297 296 296 296 296 296 296 296 295 295 295 295 294 294 293 293 293 293 292 292 292 292 292 292 292 292 292 292 292 292 292 293 292 292
312 312 311 310 310 309 308 306 304 301 300 299 298 297 297 297 296 296 296 296 296 296 296 295 295 295 295 294 294 293 293 292 292 292 292 292 292 292 292 292 292 292 292 292 292 292 292 292 292 292 292 292
312 312 311 310 309 308 307 305 303 301 300 299 298 297 297 296 296 295 295 295 295 295 295 295 294 294 293 293 293 292 292 292 292 292 292 292 292 292 292 292 292 292 292 292 292 292 291 292 292 292 292 292
311 311 310 309 308 306 305 304 303 302 301 299 298 297 297 296 295 295 295 295 294 294 294 293 293 293 292 292 292 292 292 292 292 292 292 292 292 292 292 292 292 292 292 292 292 292 292 292 291 291 292 291
310 310 309 308 307 305 305 304 304 303 301 300 298 297 297 296 295 295 294 294 294 293 293 293 293 292 292 292 292 292 292 292 292 292 292 292 292 292 292 292 292 292 292 292 292 292 292 292 292 291 291 291
309 309 309 308 307 306 306 305 304 303 301 300 299 297 297 296 295 294 294 294 293 293 293 293 292 292 292 292 292 292 292 292 292 292 292 292 292 292 292 292 292 292 292 292 292 292 292 292 292 292 291 291
308 308 308 308 307 307 306 305 304 302 301 300 299 297 296 295 295 294 294 293 293 293 293 292 292 292 292 292 292 292 292 292 292 292 292 292 292 292 292 292 292 292 292 292 292 292 292 292 292 292 292 291
307 308 307 307 307 306 306 305 303 301 301 300 299 297 296 295 295 294 294 293 293 293 292 292 292 292 292 292 292 292 292 292 292 292 292 292 292 292 292 292 292 292 292 292 292 292 292 292 291 291 291 291
307 307 306 306 306 305 305 304 302 301 300 300 298 297 296 295 295 294 294 293 293 293 292 292 292 292 292 292 292 291 291 291 291 292 292 292 292 292 292 291 292 292 292 292 292 292 291 291 291 291 291 291
306 306 305 305 305 304 304 303 302 301 300 299 298 297 296 295 295 294 294 293 293 293 292 292 292 292 291 291 291 291 291 291 291 291 291 291 291 291 291 291 291 291 291 291 291 291 291 291 291 291 291 291
305 305 305 304 304 303 303 302 302 301 300 299 298 297 296 295 295 294 294 293 293 293 292 292 292 292 291 291 291 291 291 291 291 291 291 291 291 291 291 291 291 291 291 291 291 291 291 291 291 291 291 291
305 305 305 304 303 303 302 302 302 301 300 299 298 297 296 295 295 295 294 294 293 293 292 292 292 292 291 291 291 291 291 291 291 291 291 291 291 291 291 291 291 291 291 291 291 290 290 290 290 290 290 290
305 305 304 304 303 303 302 302 301 301 300 299 298 297 296 296 295 295 294 294 293 293 292 292 292 291 291 291 291 291 291 291 291 291 291 291 291 291 291 291 291 291 291 290 290 290 290 290 290 290 290 290
306 305 305 304 303 303 302 302 301 301 300 299 298 297 297 296 295 295 294 294 294 293 293 292 292 291 291 291 291 290 291 291 291 291 291 291 291 291 291 291 291 291 290 290 290 290 290 290 290 290 289 289
307 306 305 304 303 303 303 302 301 301 300 299 298 298 297 296 295 295 294 294 294 293 293 292 292 291 291 291 290 290 290 291 291 291 291 291 291 291 291 291 291 291 290 290 290 290 290 290 290 289 289 289
307 306 305 304 304 303 303 302 302 301 300 299 298 298 297 296 296 295 295 294 294 293 293 292 292 291 291 291 290 290 290 290 290 291 291 291 291 290 291 291 290 290 290 290 290 290 290 290 290 290 289 289
307 306 305 304 304 303 303 302 302 301 300 299 298 298 297 296 296 295 295 294 294 294 293 292 292 291 291 291 291 290 290 290 290 291 291 290 290 290 290 290 290 290 290 290 290 290 290 290 290 290 290 289
306 306 305 304 304 303 302 302 302 301 300 299 298 298 297 297 296 295 295 294 294 294 293 293 292 291 291 291 291 290 290 290 290 290 290 290 290 290 290 290 290 290 290 290 290 290 290 290 290 290 289 289
306 305 305 304 304 303 302 301 301 301 300 299 298 298 297 297 296 295 295 294 294 294 293 293 292 292 291 291 291 291 290 290 290 290 290 290 290 290 290 290 290 290 290 290 290 290 290 290 290 290 289 289
306 305 305 304 303 302 301 301 300 300 299 298 298 297 297 297 296 296 295 295 294 294 294 293 292 292 291 291 291 291 290 289 289 289 289 290 290 290 290 290 290 290 290 290 290 290 290 290 289 289 289 289
306 305 304 303 303 302 301 300 300 299 299 299 298 298 297 296 296 295 295 295 294 294 294 293 293 292 291 291 291 291 290 289 289 289 290 290 290 289 290 290 290 290 290 290 290 290 289 289 289 288 289 289
305 304 303 303 303 302 301 301 300 299 299 298 298 297 297 296 296 295 295 294 294 294 294 293 293 292 292 291 291 291 290 290 290 289 290 290 289 289 289 290 290 290 290 290 290 290 289 289 288 289 289 288
304 303 302 302 302 301 301 300 299 299 299 298 298 297 296 296 296 295 295 295 294 294 294 293 293 292 292 291 291 291 291 290 290 289 289 289 289 289 290 290 289 289 289 290 290 290 290 289 289 289 289 288
303 302 301 301 301 300 300 299 299 299 298 297 297 297 296 296 296 295 295 295 294 294 294 293 293 293 292 292 291 291 291 290 290 290 289 289 289 289 289 289 289 289 289 289 289 290 290 290 290 290 289 288
301 301 300 300 300 300 299 299 298 297 297 297 297 296 296 296 295 295 295 295 294 294 294 293 293 293 292 292 291 291 291 290 291 290 290 289 289 289 289 289 289 289 289 289 289 290 290 290 290 290 289 289
Wind_Speed
16 13 12 10 8 7 7 8 8 7 6 5 5 5 5 4 3 3 2 2 1 0 1 1 1 0 1 1 2 2 2 2 2 3 2 2 2 2 2 3 3 3 3 3 4 3 3 3 3 2 2 3
15 14 12 10 9 8 9 10 9 8 7 7 6 6 5 5 5 5 5 4 4 4 3 2 2 2 2 2 2 3 3 3 4 4 4 4 4 4 4 4 4 5 4 5 5 5 5 5 4 4 3 4
16 14 13 11 10 9 10 11 10 10 9 8 7 6 6 6 6 7 7 6 6 5 5 4 4 4 4 4 4 4 4 4 5 5 6 6 5 5 5 5 6 6 6 6 6 6 7 6 6 6 5 4
17 15 14 13 12 11 12 11 11 11 10 9 8 8 8 8 8 8 8 8 7 7 6 6 6 5 5 5 5 5 5 5 6 5 6 6 6 6 6 6 6 6 7 6 7 7 7 7 7 7 7 6
18 17 17 16 15 13 13 12 12 12 11 10 9 9 9 9 9 9 9 9 9 8 8 7 7 7 6 6 6 5 5 6 6 6 6 6 6 7 7 7 6 7 7 7 7 7 7 7 8 8 8 7
20 18 18 17 16 15 14 14 13 13 12 11 10 10 10 10 10 10 10 10 10 9 9 8 8 7 7 6 6 6 6 6 7 7 7 7 8 8 8 8 8 8 8 7 7 7 8 8 8 8 8 8
21 20 19 17 17 17 17 15 14 14 13 11 11 11 11 11 11 11 11 11 10 10 10 9 9 8 8 8 7 7 7 7 7 8 8 8 8 8 9 9 9 9 9 8 8 8 8 8 8 8 8 8
23 22 20 19 19 19 18 17 16 15 14 13 12 12 12 12 12 12 12 12 11 11 11 10 10 10 9 9 8 8 8 8 8 8 8 8 8 9 9 8 8 9 9 9 8 8 8 8 8 8 8 9
26 24 22 21 20 19 18 18 17 16 15 14 13 13 12 13 13 13 13 13 13 12 12 12 11 10 10 10 9 9 8 8 8 8 8 8 9 9 9 9 8 8 9 9 9 8 8 8 8 8 8 8
26 25 24 22 20 19 19 18 18 18 17 16 15 14 13 13 13 13 13 13 14 13 13 12 11 11 11 10 10 9 9 8 8 8 8 8 8 9 9 9 9 9 9 9 9 9 9 8 8 8 8 8
25 25 23 22 20 19 19 19 19 19 18 17 16 16 15 14 14 14 14 14 14 14 13 13 12 12 11 11 10 9 9 9 8 8 8 8 8 8 9 9 9 9 9 9 9 9 9 9 9 9 9 8
25 25 24 22 22 21 21 21 21 20 19 18 17 17 17 16 15 14 15 15 15 15 14 13 12 12 11 11 10 10 9 9 9 9 9 9 9 9 9 9 9 9 9 9 9 10 10 10 10 10 10 10
25 25 25 24 23 23 23 23 21 21 20 20 19 19 18 17 16 15 15 15 15 15 15 13 13 12 11 11 11 10 10 10 10 9 10 9 9 9 9 9 9 9 9 9 10 10 10 10 10 11 11 11
26 26 26 26 25 24 24 23 22 22 22 21 21 20 19 18 17 16 16 16 16 16 16 14 13 13 12 12 12 11 11 10 10 10 10 10 10 10 10 10 9 9 9 9 10 10 10 10 10 11 11 11
26 27 27 26 25 25 25 24 24 23 23 23 22 21 21 19 18 18 17 17 17 17 17 15 14 14 13 13 12 12 11 11 11 11 11 11 11 11 10 10 10 9 9 9 9 9 10 10 10 11 11 12
27 27 27 26 26 27 26 25 25 25 25 24 24 23 22 21 20 19 18 18 18 18 18 16 15 14 13 13 13 12 12 12 12 12 12 12 11 11 11 11 10 10 10 10 9 9 9 10 10 10 11 12
28 28 27 27 28 28 27 27 27 27 26 25 25 24 23 23 22 21 20 19 19 19 18 17 16 15 14 14 14 13 12 12 12 12 12 12 12 12 12 11 11 11 10 10 10 10 10 10 10 10 11 11
29 29 28 28 29 29 29 29 29 28 27 27 26 25 25 24 23 22 21 21 21 20 20 18 17 16 15 15 15 14 13 13 13 13 13 13 13 12 12 12 11 11 11 11 11 10 11 10 11 11 11 12
30 30 29 29 30 30 30 30 30 29 29 28 27 27 26 26 25 24 23 22 22 21 21 19 18 17 16 16 16 15 14 14 14 14 14 13 13 13 12 12 12 12 12 11 11 11 11 12 12 12 12 12
32 30 30 31 31 31 31 31 31 31 30 29 29 28 28 27 26 25 25 24 23 23 22 21 20 19 18 18 17 16 15 15 15 14 14 14 13 13 12 12 12 12 12 11 12 12 12 12 12 13 13 13
33 32 32 32 32 32 32 33 33 32 32 31 31 31 30 29 28 27 27 26 25 24 24 23 21 20 20 19 18 17 16 16 16 15 14 14 13 13 12 12 12 12 12 12 12 12 13 13 13 13 13 14
35 34 33 33 33 34 35 35 35 34 34 34 34 33 32 31 30 29 29 27 26 26 25 24 24 23 22 21 19 18 18 17 17 16 15 15 13 13 12 12 12 12 12 12 12 12 13 13 13 14 14 14
37 35 35 35 35 36 37 37 37 37 37 37 36 36 35 34 33 32 30 29 28 27 27 26 26 25 24 23 21 20 20 19 19 18 16 15 14 13 13 13 12 12 12 12 12 12 12 13 14 14 14 14
39 38 38 38 39 40 40 40 40 40 40 39 38 38 37 36 35 34 32 31 30 29 29 28 28 27 26 25 23 22 22 21 20 18 17 16 15 15 14 14 13 13 13 12 12 12 12 13 13 13 13 14
43 42 42 42 43 44 44 43 43 42 42 41 40 39 38 38 37 35 34 33 32 31 31 30 30 29 28 27 26 25 23 21 20 20 19 18 18 17 16 15 14 14 13 12 12 12 12 13 13 13 13 13
46 45 45 45 44 44 44 43 43 42 41 40 39 39 38 38 37 37 36 35 34 33 33 32 32 31 30 29 28 26 24 23 23 23 23 22 20 19 18 16 16 16 14 13 13 12 12 12 12 13 13 13
48 47 46 45 45 45 44 44 43 42 41 40 40 40 38 38 38 38 37 37 36 35 34 34 33 33 32 31 30 29 27 26 27 27 26 24 23 21 20 19 19 17 16 15 14 12 11 12 11 12 13 13
48 47 46 45 45 45 45 44 43 42 42 42 42 41 40 39 39 39 39 38 38 37 36 35 35 35 34 34 33 32 30 29 29 29 28 26 25 24 23 23 21 19 18 18 15 12 11 11 11 12 12 11
48 47 47 46 46 46 46 46 46 46 45 45 45 43 41 41 41 41 41 40 40 39 38 37 37 37 37 36 35 35 33 32 31 30 30 29 28 28 27 25 23 21 21 21 18 16 14 13 11 11 11 11
48 48 48 48 48 48 49 49 49 48 47 47 46 44 42 42 43 43 43 42 42 41 40 39 39 39 39 39 38 38 37 35 34 33 33 32 32 31 29 27 26 25 24 23 22 21 20 18 15 14 14 13
48 49 49 49 50 50 50 50 50 48 47 47 46 45 45 45 45 44 44 44 44 43 43 42 41 41 41 41 41 40 40 39 37 36 35 34 34 33 32 31 31 30 28 26 25 24 23 22 20 19 19 18
Wind_Direction
200 205 214 225 241 262 283 296 296 278 263 251 248 248 252 263 269 266 260 230 208 231 68 85 70 29 329 338 342 346 336 319 321 322 321 328 329 332 329 322 321 322 328 329 327 334 333 334 341 347 344 338
208 215 222 232 247 264 281 293 297 285 271 261 259 264 271 277 279 276 277 270 266 277 279 270 250 251 261 267 277 282 288 294 299 305 308 313 316 315 317 314 314 315 315 316 316 319 318 317 318 317 322 319
216 222 232 240 252 265 279 289 293 285 272 266 267 270 272 273 274 274 275 273 271 273 270 260 248 246 248 254 260 267 274 280 286 294 300 305 310 310 313 312 313 314 313 313 314 315 315 314 314 313 313 310
222 229 241 249 257 267 276 283 286 281 270 266 267 269 271 271 272 273 271 271 268 265 262 256 251 249 247 254 257 263 271 276 282 289 295 299 303 306 308 310 311 311 311 311 312 312 312 312 312 313 311 311
226 232 241 248 256 264 273 277 279 275 267 264 265 266 268 268 268 268 266 265 263 260 257 254 252 252 251 254 257 264 271 276 284 290 294 298 301 305 307 309 309 308 307 308 309 307 306 306 306 307 306 306
228 233 238 244 253 263 271 272 274 270 262 259 261 263 265 267 267 264 262 258 256 253 251 250 249 250 251 251 254 260 267 275 282 289 293 297 301 304 306 309 310 309 308 307 307 305 304 303 302 301 301 299
230 235 239 246 254 262 267 267 268 264 259 257 258 262 263 264 264 262 259 254 249 247 245 244 244 247 249 251 255 260 265 273 279 286 291 295 299 301 303 306 307 308 307 308 308 305 304 304 302 301 301 300
232 236 241 247 252 257 260 262 263 260 257 254 256 258 260 261 258 255 252 249 244 242 241 241 243 246 248 253 258 263 268 274 280 286 291 295 298 299 302 303 304 304 305 307 307 306 305 303 303 302 302 302
234 236 241 244 246 251 254 258 258 257 256 255 258 258 259 259 257 252 246 243 241 239 239 239 243 245 248 252 255 261 267 273 280 285 288 293 296 298 300 301 302 302 302 305 306 306 305 305 304 303 302 301
235 237 240 242 244 248 251 254 255 256 257 258 260 261 262 260 256 252 245 240 239 239 239 239 242 244 246 250 254 258 265 272 277 280 283 286 289 292 295 297 299 299 300 302 304 305 306 307 308 306 306 304
234 236 239 241 243 247 251 253 255 256 257 259 262 265 266 262 257 252 246 241 238 239 240 240 241 243 246 249 256 261 268 274 276 278 281 282 285 288 290 293 295 297 299 301 303 305 306 308 309 310 310 309
233 235 237 238 240 244 249 252 255 256 256 258 262 266 266 263 258 251 248 243 239 241 241 242 243 245 249 253 259 264 269 273 275 278 279 281 282 284 286 290 292 295 296 299 301 303 305 306 308 308 309 310
234 236 237 238 240 243 247 251 254 255 255 257 261 264 265 263 259 253 249 245 243 244 245 246 247 248 252 255 259 262 266 269 271 273 274 276 277 279 281 283 285 289 291 293 297 298 301 302 303 304 305 305
234 236 238 239 242 244 247 250 252 253 254 257 260 262 263 263 261 255 249 245 244 244 246 246 246 248 250 253 257 260 263 264 267 268 269 271 271 272 273 275 277 279 283 285 288 291 294 296 298 300 300 302
236 237 239 241 243 244 246 248 250 252 254 257 259 261 263 263 261 256 251 246 245 244 245 245 245 246 248 253 257 259 261 261 262 263 265 266 267 268 268 271 273 274 276 277 280 282 285 289 291 295 296 299
237 238 239 241 243 244 246 247 249 251 254 256 259 261 262 262 260 258 254 249 247 246 246 246 247 248 251 257 259 261 261 260 262 263 265 266 267 268 268 270 271 272 274 275 278 279 282 285 287 291 293 295
238 239 240 241 243 245 246 246 248 251 253 255 257 259 260 261 260 259 257 253 250 249 249 249 250 252 254 259 262 263 263 263 265 266 267 269 268 269 270 271 272 274 277 279 282 284 286 287 289 289 291 292
239 239 240 242 244 246 247 248 249 251 253 254 255 257 259 259 260 260 259 256 253 251 251 252 252 254 256 260 263 264 265 265 266 268 268 269 269 269 271 272 275 277 280 283 286 289 289 290 290 290 291 290
240 241 243 245 247 247 249 250 251 252 253 254 255 256 257 258 259 260 260 258 256 255 254 255 256 257 259 261 263 263 264 263 263 265 265 267 268 269 272 274 276 279 283 286 288 290 291 291 292 292 293 292
242 244 246 248 250 250 252 253 254 254 255 256 256 256 256 256 258 259 259 259 258 257 256 256 257 257 258 259 261 262 261 261 262 263 264 266 268 270 273 275 278 281 284 288 289 291 291 292 294 294 295 295
243 244 246 249 251 252 253 254 255 256 256 257 256 255 255 255 256 257 258 258 259 258 257 256 256 255 256 257 258 258 258 258 259 259 261 263 265 267 271 274 277 280 283 287 288 290 292 293 294 294 294 295
245 245 246 248 251 252 253 254 256 256 256 256 256 256 256 255 255 256 256 257 258 258 256 255 254 253 254 255 255 255 255 254 255 255 255 257 260 263 266 269 272 276 280 282 284 288 290 291 290 291 292 292
246 245 245 246 248 250 251 252 253 253 254 254 255 255 255 255 255 254 254 256 257 257 256 254 253 252 253 254 254 253 252 250 251 253 253 254 255 257 260 263 266 269 273 276 279 283 284 285 286 287 289 288
243 242 242 243 244 246 248 249 249 250 251 252 253 254 254 254 254 254 254 255 256 256 255 254 253 252 252 253 252 251 251 251 252 253 253 252 251 252 254 256 259 262 265 269 272 276 279 280 283 285 286 284
243 242 241 241 244 247 249 249 249 249 250 251 253 253 254 254 255 255 255 254 255 255 255 254 253 251 250 251 251 251 252 251 249 247 246 245 245 246 248 251 255 256 258 262 267 272 275 277 280 282 281 280
245 245 245 246 249 252 252 252 252 253 254 255 255 255 256 256 257 257 256 255 255 255 255 254 253 251 250 250 251 251 249 245 243 242 242 243 244 245 246 248 250 252 255 259 264 268 272 276 278 279 281 282
247 249 249 250 252 254 254 255 256 257 258 258 258 258 258 259 259 258 257 256 255 254 255 255 254 253 252 251 251 250 247 243 242 242 242 243 244 244 245 246 248 251 254 256 260 263 265 268 272 277 280 278
249 250 250 250 251 252 253 255 256 256 256 256 256 257 258 258 258 257 256 255 254 254 254 254 254 254 253 251 251 250 248 246 245 245 245 245 244 244 246 248 250 251 251 253 254 254 253 255 263 271 272 268
248 248 247 247 246 246 247 248 249 249 251 252 253 255 256 256 256 256 256 255 255 254 253 254 254 254 253 252 250 250 249 248 248 248 248 248 247 247 250 252 252 250 250 252 251 250 248 248 255 262 262 262
247 247 246 245 244 244 244 246 247 249 252 253 255 257 258 257 257 257 258 257 257 256 255 254 254 253 253 252 251 250 249 248 247 247 247 247 247 248 250 249 248 248 250 249 248 250 251 252 256 257 258 259
247 247 247 247 247 247 248 250 253 256 258 258 259 260 260 259 260 260 260 259 259 258 257 255 255 254 254 253 252 250 249 248 247 248 247 247 247 248 249 247 247 249 249 247 247 250 252 253 255 254 254 255